Location: Newark
(43.0000°N, 1.6781°W)
Time: 20:05:00
(UTC+00:00)

Transit 2A Rocket - Pass Details

Date: 25 April 2021
Orbit: 594 x 908 km, 66.7° (Epoch: 05 May)

Event Time Altitude Azimuth Distance (km) Brightness Sun altitude
Rises 22:41:33 0° 329° (NNW) 2,899 9.2 -30.4°
Reaches altitude 10° 22:43:45 10° 331° (NNW) 2,019 8.1 -30.5°
Enters shadow 22:46:37 40° 336° (NNW) 972 5.9 -30.7°
